Time,TemperatureF,DewpointF,PressureIn,WindDirection,WindDirectionDegrees,WindSpeedMPH,WindSpeedGustMPH,Humidity,HourlyPrecipIn,Conditions,Clouds,dailyrainin,SoftwareType,DateUTC
2013-01-31 01:51:00,41.8,39.9,30.29,West,276,0.0,0.0,93,0.00,,,0.00,Wunderground v.1.15,2013-01-31 09:51:00,
2013-01-31 02:01:00,41.7,39.8,30.30,West,276,0.0,0.0,93,0.00,,,0.00,Wunderground v.1.15,2013-01-31 10:01:00,
2013-01-31 02:11:00,41.4,39.5,30.30,West,275,0.0,0.0,93,0.00,,,0.00,Wunderground v.1.15,2013-01-31 10:11:00,
2013-01-31 02:21:00,41.1,39.2,30.30,West,275,0.0,0.0,93,0.00,,,0.00,Wunderground v.1.15,2013-01-31 10:21:00,
2013-01-31 02:31:00,40.6,38.7,30.30,WSW,243,0.0,0.0,93,0.00,,,0.00,Wunderground v.1.15,2013-01-31 10:31:00,
2013-01-31 02:41:00,40.7,39.1,30.29,WSW,247,0.0,0.0,94,0.00,,,0.00,Wunderground v.1.15,2013-01-31 10:41:00,
2013-01-31 02:51:00,40.9,39.3,30.29,WSW,247,0.0,0.0,94,0.00,,,0.00,Wunderground v.1.15,2013-01-31 10:51:00,
2013-01-31 03:01:00,40.9,39.3,30.28,WSW,256,0.0,0.0,94,0.00,,,0.00,Wunderground v.1.15,2013-01-31 11:01:00,
2013-01-31 04:41:00,40.8,39.2,30.28,West,280,0.0,1.0,94,0.00,,,0.00,Wunderground v.1.15,2013-01-31 12:41:00,
2013-01-31 04:51:00,40.6,39.0,30.28,WSW,257,0.0,0.0,94,0.00,,,0.00,Wunderground v.1.15,2013-01-31 12:51:00,
2013-01-31 05:01:00,40.3,38.7,30.28,WSW,253,0.0,0.0,94,0.00,,,0.00,Wunderground v.1.15,2013-01-31 13:01:00,
2013-01-31 05:11:00,40.1,38.5,30.28,WSW,253,0.0,0.0,94,0.00,,,0.00,Wunderground v.1.15,2013-01-31 13:11:00,
2013-01-31 05:21:00,40.4,39.1,30.28,WNW,287,0.0,0.0,95,0.00,,,0.00,Wunderground v.1.15,2013-01-31 13:21:00,
2013-01-31 05:31:00,40.5,39.2,30.28,West,272,0.0,0.0,95,0.00,,,0.00,Wunderground v.1.15,2013-01-31 13:31:00,
2013-01-31 05:41:00,40.2,38.6,30.28,WNW,285,0.0,0.0,94,0.00,,,0.00,Wunderground v.1.15,2013-01-31 13:41:00,
2013-01-31 05:51:00,40.2,38.9,30.29,WSW,247,0.0,0.0,95,0.00,,,0.00,Wunderground v.1.15,2013-01-31 13:51:00,
2013-01-31 06:01:00,40.2,38.9,30.28,WSW,253,0.0,0.0,95,0.00,,,0.00,Wunderground v.1.15,2013-01-31 14:01:00,
2013-01-31 06:11:00,40.3,39.0,30.28,WNW,290,0.0,0.0,95,0.00,,,0.00,Wunderground v.1.15,2013-01-31 14:11:00,
2013-01-31 09:11:00,49.3,45.6,30.31,NW,314,1.0,1.0,87,0.00,,,0.01,Wunderground v.1.15,2013-01-31 17:11:00,
2013-01-31 09:21:00,51.2,45.9,30.31,WNW,289,1.0,1.0,82,0.00,,,0.01,Wunderground v.1.15,2013-01-31 17:21:00,
2013-01-31 09:31:00,53.3,47.0,30.31,West,277,1.0,1.0,79,0.00,,,0.01,Wunderground v.1.15,2013-01-31 17:31:00,
2013-01-31 09:41:00,55.2,47.4,30.31,WNW,283,1.0,2.0,75,0.00,,,0.01,Wunderground v.1.15,2013-01-31 17:41:00,
2013-01-31 09:51:00,57.8,47.7,30.31,West,278,0.0,0.0,69,0.00,,,0.01,Wunderground v.1.15,2013-01-31 17:51:00,
2013-01-31 10:01:00,59.9,47.3,30.31,North,354,0.0,3.0,63,0.00,,,0.01,Wunderground v.1.15,2013-01-31 18:01:00,
2013-01-31 10:11:00,58.1,46.0,30.31,North,359,2.0,5.0,64,0.00,,,0.01,Wunderground v.1.15,2013-01-31 18:11:00,
2013-01-31 10:21:00,57.0,45.3,30.31,North,4,3.0,3.0,65,0.00,,,0.01,Wunderground v.1.15,2013-01-31 18:21:00,
2013-01-31 10:31:00,57.4,46.1,30.30,NNE,16,2.0,2.0,66,0.00,,,0.01,Wunderground v.1.15,2013-01-31 18:31:00,